| time (UTC) | temp F | wind direction | speed knots | gust knots | rain 1hr in | rain 24hr in | rain mn in | humidity % | barometer mb |
| 20260505040017 | 60 | 0.0 | 0.9 | 0.00 | 0.00 | 0.00 | 57 | 1006.7 | |
| 20260505033016 | 60 | 0.0 | 0.0 | 0.00 | 0.00 | 0.00 | 55 | 1006.7 | |
| 20260505030017 | 61 | 0.0 | 0.0 | 0.00 | 0.00 | 0.00 | 53 | 1006.7 | |
| 20260505023016 | 62 | 0.0 | 1.7 | 0.00 | 0.00 | 0.00 | 52 | 1006.7 | |
| 20260505020016 | 63 | 203 | 1.7 | 4.3 | 0.00 | 0.00 | 0.00 | 51 | 1006.7 |
| 20260505013017 | 63 | 203 | 1.7 | 4.3 | 0.00 | 0.00 | 0.00 | 50 | 1006.6 |
| 20260505010018 | 64 | 203 | 2.6 | 5.2 | 0.00 | 0.00 | 0.00 | 49 | 1006.3 |
| 20260505003017 | 66 | 203 | 3.5 | 6.1 | 0.00 | 0.00 | 0.00 | 47 | 1006.1 |
| 20260505000037 | 68 | 203 | 1.7 | 6.1 | 0.00 | 0.00 | 0.00 | 46 | 1006.1 |
| 20260504233039 | 69 | 203 | 1.7 | 5.2 | 0.00 | 0.00 | 0.00 | 43 | 1005.6 |
| 20260504230018 | 70 | 203 | 2.6 | 7.8 | 0.00 | 0.00 | 0.00 | 43 | 1005.7 |
| 20260504223017 | 70 | 225 | 2.6 | 6.1 | 0.00 | 0.00 | 0.00 | 41 | 1005.5 |
| 20260504220017 | 71 | 225 | 0.9 | 4.3 | 0.00 | 0.00 | 0.00 | 41 | 1005.6 |
| 20260504213017 | 72 | 225 | 1.7 | 10.4 | 0.00 | 0.00 | 0.00 | 39 | 1005.7 |
| 20260504210018 | 72 | 203 | 1.7 | 6.1 | 0.00 | 0.00 | 0.00 | 40 | 1005.7 |
| 20260504203017 | 72 | 225 | 0.9 | 5.2 | 0.00 | 0.00 | 0.00 | 37 | 1006.1 |
| 20260504200017 | 72 | 225 | 1.7 | 5.2 | 0.00 | 0.00 | 0.00 | 38 | 1006.3 |
| 20260504193017 | 73 | 225 | 2.6 | 10.4 | 0.00 | 0.00 | 0.00 | 38 | 1006.8 |
| 20260504190016 | 74 | 203 | 1.7 | 6.1 | 0.00 | 0.00 | 0.00 | 36 | 1006.9 |
| 20260504183016 | 75 | 203 | 2.6 | 6.1 | 0.00 | 0.00 | 0.00 | 37 | 1007.3 |
| 20260504180016 | 74 | 203 | 2.6 | 7.8 | 0.00 | 0.00 | 0.00 | 34 | 1007.8 |
| 20260504173037 | 73 | 203 | 1.7 | 7.8 | 0.00 | 0.00 | 0.00 | 34 | 1007.8 |
| 20260504050018 | 47 | 0.0 | 0.0 | 0.00 | 0.00 | 0.00 | 56 | 1011.0 | |
| 20260504043017 | 47 | 0.0 | 0.0 | 0.00 | 0.00 | 0.00 | 54 | 1010.9 |